TimeMST,TemperatureF,Dew PointF,Humidity,Sea Level PressureIn,VisibilityMPH,Wind Direction,Wind SpeedMPH,Gust SpeedMPH,PrecipitationIn,Events,Conditions,WindDirDegrees,DateUTC
12:16 AM,28.4,26.6,93,29.74,1.0,NW,12.7,-,0.00,Snow,Light Snow,310,2013-01-28 07:16:00
12:28 AM,28.4,26.6,93,29.73,1.2,NW,12.7,-,0.00,Snow,Light Snow,320,2013-01-28 07:28:00
12:53 AM,28.0,26.1,92,29.80,2.0,NNW,12.7,-,0.00,Snow,Light Snow,330,2013-01-28 07:53:00
1:27 AM,28.4,26.6,93,29.73,4.0,NW,15.0,-,0.00,Snow,Light Snow,320,2013-01-28 08:27:00
1:53 AM,28.0,26.1,92,29.81,6.0,NNW,15.0,-,0.00,,Overcast,330,2013-01-28 08:53:00
2:53 AM,28.0,25.0,88,29.82,2.5,NNW,16.1,-,0.00,Snow,Light Snow,340,2013-01-28 09:53:00
3:04 AM,28.4,24.8,86,29.75,4.0,NNW,15.0,-,0.00,Snow,Light Snow,330,2013-01-28 10:04:00
3:35 AM,28.4,24.8,86,29.75,3.0,NNW,13.8,-,0.00,Snow,Light Snow,330,2013-01-28 10:35:00
3:53 AM,27.0,25.0,92,29.84,3.0,NNW,16.1,-,0.00,Snow,Light Snow,330,2013-01-28 10:53:00
4:08 AM,26.6,24.8,93,29.75,2.0,NNW,16.1,-,0.00,Snow,Light Snow,330,2013-01-28 11:08:00
4:26 AM,26.6,24.8,93,29.75,2.0,NNW,18.4,-,0.00,Snow,Light Snow,330,2013-01-28 11:26:00
4:36 AM,26.6,24.8,93,29.75,1.5,NNW,18.4,-,0.00,Snow,Light Snow,330,2013-01-28 11:36:00
4:53 AM,27.0,24.1,89,29.84,3.0,NNW,16.1,-,0.00,Snow,Light Snow,330,2013-01-28 11:53:00
5:16 AM,26.6,24.8,93,29.75,9.0,NNW,16.1,-,0.00,,Overcast,330,2013-01-28 12:16:00
5:53 AM,27.0,24.1,89,29.85,10.0,NNW,13.8,-,0.00,,Overcast,340,2013-01-28 12:53:00
6:06 AM,26.6,24.8,93,29.76,8.0,NNW,16.1,-,N/A,,Overcast,330,2013-01-28 13:06:00
6:37 AM,26.6,24.8,93,29.77,10.0,NNW,11.5,-,0.00,,Overcast,330,2013-01-28 13:37:00
6:53 AM,27.0,23.0,85,29.87,10.0,NNW,10.4,-,0.00,,Overcast,330,2013-01-28 13:53:00
7:53 AM,27.0,23.0,85,29.88,6.0,North,8.1,-,N/A,,Overcast,350,2013-01-28 14:53:00
8:35 AM,26.6,21.2,80,29.78,10.0,North,6.9,-,0.00,,Overcast,360,2013-01-28 15:35:00
8:53 AM,26.1,21.9,84,29.88,10.0,North,5.8,-,0.00,,Overcast,350,2013-01-28 15:53:00
9:53 AM,28.0,21.9,78,29.89,10.0,NNW,4.6,-,N/A,,Overcast,340,2013-01-28 16:53:00
10:43 AM,28.4,24.8,86,29.80,5.0,NE,5.8,-,0.00,,Haze,40,2013-01-28 17:43:00
10:53 AM,28.9,25.0,85,29.90,5.0,ENE,4.6,-,0.00,,Overcast,60,2013-01-28 17:53:00
11:03 AM,28.4,24.8,86,29.80,3.0,NE,3.5,-,0.00,Snow,Light Snow,50,2013-01-28 18:03:00
11:11 AM,30.2,24.8,80,29.80,2.5,NNE,4.6,-,0.00,Snow,Light Snow,20,2013-01-28 18:11:00
11:31 AM,28.4,24.8,86,29.80,2.0,Calm,Calm,-,0.00,Snow,Light Snow,0,2013-01-28 18:31:00
11:53 AM,28.9,25.0,85,29.89,3.0,NNW,4.6,-,0.00,Snow,Light Snow,330,2013-01-28 18:53:00
12:11 PM,30.2,24.8,80,29.79,9.0,NNW,4.6,-,0.00,,Mostly Cloudy,340,2013-01-28 19:11:00
12:21 PM,30.2,24.8,80,29.78,10.0,NW,3.5,-,0.00,,Mostly Cloudy,310,2013-01-28 19:21:00
12:53 PM,32.0,24.1,73,29.86,10.0,NE,3.5,-,0.00,,Mostly Cloudy,50,2013-01-28 19:53:00
1:53 PM,30.9,24.1,76,29.85,10.0,Calm,Calm,-,N/A,,Overcast,0,2013-01-28 20:53:00
2:53 PM,30.0,25.0,82,29.85,10.0,SE,4.6,-,N/A,,Mostly Cloudy,130,2013-01-28 21:53:00
3:53 PM,28.9,24.1,82,29.87,10.0,SE,4.6,-,N/A,,Partly Cloudy,140,2013-01-28 22:53:00
4:53 PM,28.0,23.0,81,29.87,10.0,East,3.5,-,N/A,,Overcast,100,2013-01-28 23:53:00
5:53 PM,23.0,19.9,88,29.90,10.0,South,4.6,-,N/A,,Mostly Cloudy,170,2013-01-29 00:53:00
6:53 PM,19.9,18.0,92,29.90,10.0,ESE,3.5,-,N/A,,Overcast,120,2013-01-29 01:53:00
7:53 PM,18.0,16.0,92,29.91,10.0,SE,3.5,-,N/A,,Clear,140,2013-01-29 02:53:00
8:53 PM,18.0,15.1,88,29.91,10.0,SE,4.6,-,N/A,,Mostly Cloudy,130,2013-01-29 03:53:00
9:53 PM,15.1,12.0,88,29.90,10.0,Calm,Calm,-,N/A,,Partly Cloudy,0,2013-01-29 04:53:00
10:53 PM,14.0,12.9,95,29.90,10.0,Calm,Calm,-,N/A,,Clear,0,2013-01-29 05:53:00
11:14 PM,12.2,8.6,85,29.76,2.5,ESE,3.5,-,N/A,,Clear,120,2013-01-29 06:14:00
11:22 PM,14.0,12.2,93,29.76,10.0,Calm,Calm,-,N/A,,Clear,0,2013-01-29 06:22:00
11:53 PM,12.9,10.9,92,29.90,4.0,SSE,3.5,-,N/A,,Clear,160,2013-01-29 06:53:00